SCP
-0 -0 -0 -0 -0 -0 0 0 0 0 0 -0 -0 -0 0 -0 -0 -0 -0 -0 -0 -0 -0 -0 0 0 0 0 0 0 0 0 -0 -0 -0 -0 -0 0 0 -0 -0 0 0
-0 -0 -0 -0 -0 -0 -0 0 0 0 0 -0 -0 -0 -0 -0 -0 -0 -0 -0 -0 -0 -0 -0 0 0 0 0 0 0 0 0 -0 -0 -0 -0 -0 -0 0 0 0 0 0
-0 -0 -0 -0 -0 -0 -0 0 0 0 0 -0 -0 -0 -0 -0 -0 -0 -0 -0 -0 -0 -0 0 0 0 0 0 0 0 0 -0 -0 -0 -0 -0 0 0 0 0 0 0 0
-0 -0 -0 -0 -0 -0 -0 0 0 0 -0 -0 -0 -0 -0 -0 -0 -0 -0 -0 -0 -0 0 -0 0 0 0 0 0 0 0 0 -0 -0 -0 0 0 0 0 0 0 0 0
-0 -0 -0 0 -0 -0 0 0 0 0 -0 -0 -0 -0 -0 -0 -0 -0 -0 -0 -0 0 -0 -0 -0 0 0 -0 -0 -0 0 0 -0 -0 -0 0 0 0 0 0 0 0 0
0 0 -0 -0 -0 -0 0 0 0 0 -0 -0 -0 -0 -0 -0 -0 -0 -0 -0 0 0 -0 -0 -0 0 -0 0 0 0 -0 -0 -0 -0 -0 0 0 0 0 0 0 0 0
0 0 0 0 -0 0 0 0 0 0 0 0 0 0 -0 -0 -0 -0 -0 -0 0 -0 -0 -0 -0 0 -0 0 0 -0 -0 -0 -0 -0 0 0 0 0 0 0 0 0 0
0 0 0 0 0 0 0 0 0 0 0 0 0 0 0 0 0 0 0 0 -0 -0 -0 0 0 -0 -0 0 0 -0 -0 -0 -0 0 0 0 0 0 0 0 0 0 0
0 0 0 0 0 0 0 0 0 0 0 0 0 0 0 0 0 0 0 0 -0 -0 -0 -0 -0 -0 0 0 0 0 0 -0 0 0 0 0 0 0 0 0 0 0 0
0 0 0 0 0 0 0 0 0 0 0 0 0 0 0 0 0 0 0 0 -0 -0 -0 -0 -0 -0 0 0 0 0 0 0 0 0 0 0 0 0 0 0 0 0 0
0 0 0 0 0 0 0 0 0 0 0 0 0 0 0 0 0 0 0 0 -0 -0 0 0 0 0 0 0 0 0 0 0 0 0 0 0 0 0 0 0 0 0 0
0 0 0 0 0 0 0 0 0 0 0 0 0 0 0 0 0 0 0 0 -0 0 0 0 0 0 -0 0 0 0 0 0 0 0 0 0 0 0 0 0 0 0 0
0 0 0 0 0 0 0 0 0 0 0 0 0 0 0 0 0 0 0 0 0 -0 0 0 0 0 0 0 0 0 0 0 0 0 0 0 0 0 0 0 0 0 0
0 0 0 0 0 0 0 0 0 0 0 0 0 0 0 0 0 0 0 0 0 0 0 0 0 0 0 0 0 0 0 0 0 0 0 0 0 0 0 0 0 0 0
0 0 0 0 0 0 0 0 0 0 0 0 0 0 0 0 0 0 0 0 0 0 0 0 0 0 0 0 0 0 0 0 0 0 0 0 0 0 0 0 0 0 0
0 0 0 0 0 0 0 0 0 0 0 0 0 0 0 0 0 0 0 0 0 0 0 0 0 0 0 0 0 0 0 0 0 0 0 0 0 0 0 0 0 0 0
0 0 0 0 0 0 0 0 0 0 0 0 0 0 0 0 0 0 0 0 0 0 0 0 0 0 0 0 0 0 0 0 0 0 0 0 0 0 0 0 0 0 0
0 0 0 0 0 0 0 0 0 0 0 0 0 0 0 0 0 0 0 0 0 0 0 0 0 0 0 0 0 0 0 0 0 0 0 0 0 0 0 0 0 0 0
0 0 0 0 0 0 0 0 0 0 0 0 0 0 0 0 0 0 0 0 0 0 0 0 0 0 0 0 0 0 0 0 0 0 0 0 0 0 0 0 0 0 0
0 0 0 0 0 0 0 0 0 0 0 0 0 0 0 0 0 0 0 0 0 0 0 0 0 0 0 0 0 0 0 0 0 0 0 0 0 0 0 0 0 0 0
0 0 0 0 0 0 0 0 0 0 0 0 0 0 0 0 0 0 0 0 0 0 0 0 0 0 0 0 0 0 0 0 0 0 0 0 0 0 0 0 0 0 0
0 0 0 0 0 0 0 0 0 0 0 0 0 0 0 0 0 0 0 0 0 0 0 0 0 0 0 0 0 0 0 0 0 0 0 0 0 0 0 0 0 0 0
0 0 0 0 0 0 0 0 0 0 0 0 0 0 0 0 0 0 0 0 0 0 0 0 0 0 0 0 0 0 0 0 0 0 0 0 0 0 0 0 0 0 0
0 0 0 0 0 0 0 0 0 0 0 0 0 0 0 0 0 0 0 0 0 0 0 0 0 0 0 0 0 0 0 0 0 0 0 0 0 0 0 0 0 0 0
0 0 0 0 0 0 0 0 0 0 0 0 0 0 0 0 0 0 0 0 0 0 0 0 0 0 0 0 0 0 0 0 0 0 0 0 0 0 0 0 0 0 0
0 0 0 0 0 0 0 0 0 0 0 0 0 0 0 0 0 0 0 0 0 0 0 0 0 0 0 0 0 0 0 0 0 0 0 0 0 0 0 0 0 0 0
Wind_Speed_500mb
48 52 53 48 40 33 31 30 26 23 24 25 26 28 35 32 35 37 34 32 31 30 27 26 24 22 22 22 23 23 23 24 24 24 24 25 25 29 30 29 27 18 27
62 55 54 49 40 34 33 31 27 25 26 28 30 31 36 34 35 33 35 32 30 27 25 23 22 23 22 22 21 20 20 20 19 18 19 20 21 20 22 24 24 22 20
61 55 57 52 43 38 34 31 27 26 28 30 32 35 36 37 34 36 34 31 29 26 23 22 22 22 20 19 18 16 16 16 16 15 15 14 15 14 18 18 20 24 18
59 55 52 54 49 42 37 30 27 26 28 31 34 35 37 38 38 36 33 30 27 23 23 21 20 18 17 15 14 14 14 13 14 16 15 16 16 13 17 19 26 25 20
54 52 52 56 53 46 38 33 28 25 25 29 32 35 38 38 38 35 32 28 25 23 22 20 17 14 13 12 11 12 13 12 14 17 16 14 16 15 12 24 25 23 23
53 48 55 54 53 46 40 35 28 25 26 29 33 36 36 38 37 34 30 26 25 23 21 17 14 11 10 9 10 10 10 11 14 14 16 16 14 15 23 22 23 20 19
52 48 56 54 54 46 41 36 29 24 25 30 34 36 37 38 36 32 28 26 24 21 18 14 10 9 7 7 8 8 8 9 14 14 17 17 16 19 17 21 22 23 21
52 50 53 57 53 48 42 37 31 26 25 30 34 37 37 37 34 31 29 26 23 19 15 11 9 6 5 6 6 5 10 12 14 13 16 15 15 17 16 14 11 13 16
48 49 48 54 55 48 43 39 33 29 26 30 35 37 37 35 32 30 27 24 21 17 13 10 6 3 3 5 4 4 5 9 12 13 14 12 8 9 10 7 7 8 9
52 48 49 50 55 51 47 43 39 28 25 29 34 35 36 34 31 29 26 22 19 15 12 8 2 7 3 9 5 3 5 9 13 15 11 7 9 8 22 24 19 16 11
59 57 55 50 51 50 49 47 43 28 24 29 34 37 36 34 31 29 25 21 18 14 8 5 3 6 7 8 7 8 10 14 14 15 13 10 5 12 17 20 18 15 9
66 61 56 52 52 50 53 52 47 34 30 34 38 39 37 35 33 29 25 21 17 10 5 3 2 5 8 5 5 6 7 11 14 16 12 5 8 12 18 18 15 11 8
67 64 60 58 51 53 58 59 54 42 36 39 42 42 39 37 33 30 25 20 12 7 5 7 5 6 6 2 2 2 2 4 11 11 10 6 7 13 17 19 12 9 7
66 67 64 61 59 58 61 63 54 45 40 42 46 43 41 38 34 31 25 19 14 11 8 7 7 8 5 2 0 2 4 5 8 8 10 4 4 13 19 12 14 11 9
66 64 66 63 62 64 62 61 53 47 42 43 47 45 42 38 35 29 25 23 16 13 9 9 9 6 2 2 3 3 3 4 6 5 6 5 1 13 16 16 10 3 7
67 72 69 64 61 60 63 58 52 47 44 45 47 45 42 38 32 28 27 20 18 13 11 10 8 6 5 5 4 4 4 5 6 6 6 6 6 5 9 15 18 15 10
65 69 71 68 66 66 63 57 51 46 45 47 48 46 42 39 33 33 27 22 18 15 12 11 9 8 8 7 6 7 8 8 9 9 9 9 9 11 13 17 18 23 24
58 70 76 73 70 66 63 58 53 48 47 48 47 45 42 39 33 30 27 23 20 16 13 11 11 11 9 10 11 12 11 12 11 12 12 13 14 16 16 16 20 22 23
63 62 74 79 76 71 65 58 54 51 51 45 47 46 44 40 36 30 28 26 20 17 14 14 13 12 13 14 13 14 14 13 14 15 17 17 17 17 18 20 22 20 20
65 71 66 73 80 75 69 62 57 54 51 54 52 50 47 41 36 34 31 28 24 19 17 18 17 16 16 15 16 16 15 17 19 20 19 18 18 18 19 19 20 22 23
75 78 73 69 70 79 76 70 68 66 60 56 52 49 42 39 39 33 28 28 22 21 21 20 18 17 18 18 17 15 16 20 22 22 22 21 20 20 18 19 21 23 24
86 80 78 71 65 77 77 71 70 68 58 56 54 47 47 44 37 32 26 26 24 24 24 22 20 20 20 23 19 17 11 19 27 28 26 24 23 21 20 20 21 24 26
78 86 81 78 72 78 80 72 71 64 62 61 59 54 52 45 40 31 28 27 27 28 25 23 22 21 21 24 22 16 9 12 16 26 29 27 24 23 21 22 23 25 28
78 76 79 80 74 80 85 82 74 69 69 68 61 56 51 48 40 35 33 32 32 30 27 24 23 22 19 20 22 27 28 26 11 11 25 30 29 27 24 25 26 26 30
76 73 82 80 78 84 87 83 77 73 69 65 60 59 54 47 45 40 39 38 36 33 28 25 21 18 17 19 22 20 23 26 28 24 14 23 30 29 29 29 27 28 27
72 79 85 87 81 87 85 87 83 80 77 72 68 65 60 54 50 47 45 42 36 32 30 23 18 15 16 19 19 20 22 22 23 24 21 20 21 28 28 31 29 29 28
Wind_Direction_500mb
175 172 170 173 173 173 165 155 153 149 147 145 143 144 139 142 131 126 131 124 118 114 108 104 100 95 94 93 89 84 80 79 77 73 69 65 60 51 45 39 41 27 28
170 172 171 172 175 175 160 154 148 143 143 141 142 141 135 135 131 130 126 125 119 115 112 109 105 100 94 90 89 88 84 78 74 70 64 59 51 57 27 22 31 28 16
168 170 175 175 174 172 160 155 147 144 145 146 144 138 142 137 141 135 132 128 124 121 116 110 105 101 97 92 86 82 80 73 63 58 53 49 44 46 27 20 18 9 5
168 169 172 174 175 173 160 154 150 146 148 149 149 148 147 146 141 139 135 130 129 125 120 117 113 105 97 85 72 68 74 68 55 52 49 46 38 29 13 13 4 3 9
166 166 171 172 177 172 162 157 153 146 148 151 151 149 149 147 143 141 138 138 132 130 126 120 111 102 90 76 65 70 67 59 57 46 40 35 32 16 27 15 6 25 36
166 167 171 172 175 176 167 161 154 149 150 153 155 153 153 150 146 143 143 141 137 138 131 122 113 104 87 66 57 60 57 55 46 41 46 36 56 32 9 15 33 40 44
166 168 171 172 177 178 171 165 159 153 154 155 156 158 156 152 148 146 147 145 144 142 130 123 114 99 75 56 48 48 35 42 55 50 48 58 36 14 37 39 61 67 61
167 168 173 176 180 181 177 172 165 158 156 158 159 160 158 152 152 151 152 150 148 140 130 123 112 92 60 48 48 39 29 62 55 65 68 59 30 25 54 66 74 61 42
172 170 174 175 181 185 181 178 172 163 157 163 164 164 160 157 157 157 155 154 150 142 136 126 118 66 11 349 339 343 14 54 74 79 78 70 22 31 31 51 6 24 16
177 176 176 177 181 183 183 183 173 167 162 169 170 167 165 163 163 161 161 160 154 148 142 147 149 16 21 27 23 25 59 62 81 80 95 59 332 14 63 63 59 53 40
184 186 182 179 179 183 185 186 180 179 173 174 172 171 170 169 168 167 168 163 163 156 163 210 104 20 15 7 31 57 74 91 86 87 82 43 38 52 53 50 59 64 68
185 186 184 182 181 182 187 187 187 188 186 183 179 176 177 176 175 174 171 171 168 173 182 145 277 332 1 10 24 62 87 98 92 91 110 82 68 42 36 56 57 68 64
187 185 186 189 185 184 189 189 191 193 193 189 186 184 184 182 179 177 177 176 180 179 230 248 276 306 327 325 33 39 97 120 107 106 144 191 328 36 42 71 48 82 59
188 188 189 191 191 191 190 193 195 197 197 193 190 189 188 187 185 183 180 183 190 200 224 261 284 308 327 340 356 164 161 152 144 145 175 251 4 57 67 61 84 76 13
190 189 190 192 195 194 193 196 198 201 201 198 193 192 192 191 189 186 184 196 194 217 242 269 296 301 278 212 199 192 185 185 172 176 176 211 183 86 87 103 122 331 32
192 193 191 193 197 196 196 200 202 204 203 199 196 197 196 194 190 194 195 194 203 225 247 270 275 246 223 214 213 203 204 200 199 198 201 226 262 256 210 214 240 272 3
198 196 194 194 197 200 202 202 206 208 206 202 200 201 200 199 196 202 202 203 217 230 256 262 236 217 215 217 218 211 211 211 213 221 227 240 252 269 281 290 288 293 298
197 201 196 196 200 202 204 205 208 210 209 205 203 203 202 201 202 202 206 213 222 239 257 243 219 213 208 207 205 205 208 210 219 231 243 253 267 281 291 296 300 303 309
207 201 204 200 201 205 206 209 211 211 209 205 206 204 203 201 205 206 218 229 233 245 241 222 215 211 213 208 205 207 207 213 229 245 256 266 277 289 299 307 312 317 318
211 214 204 203 204 208 209 211 211 210 207 209 210 210 207 209 209 214 223 232 238 241 229 215 213 211 210 208 205 204 211 224 236 245 255 264 273 282 295 305 311 312 316
213 212 210 203 203 207 208 208 209 209 207 209 209 205 205 209 215 219 228 238 235 228 218 214 215 217 210 204 200 202 219 234 241 244 251 259 270 282 289 297 300 307 315
215 214 212 207 204 207 206 206 210 209 206 209 206 204 210 214 216 225 235 236 234 224 216 215 218 224 218 203 204 218 236 254 250 248 250 256 264 269 278 289 300 305 313
213 214 209 208 207 205 205 206 208 208 208 203 205 209 209 215 219 228 234 235 231 220 215 217 221 221 222 219 225 221 217 235 248 254 249 255 256 262 275 288 296 302 311
217 219 208 207 207 204 205 208 208 211 210 207 211 213 214 217 220 228 230 229 227 220 215 217 216 218 228 236 240 240 246 251 232 260 258 253 255 261 275 283 293 299 307
217 215 208 207 207 207 209 207 206 212 215 211 214 215 217 220 223 227 228 224 221 216 213 209 210 220 234 247 247 250 254 254 249 238 249 260 256 260 272 277 285 292 298
215 214 208 209 207 208 207 207 211 214 217 216 216 218 217 220 223 227 223 217 213 210 204 206 212 233 244 242 250 262 262 258 257 246 242 247 247 269 272 274 276 285 294
Wind_Speed_850mb
48 52 53 48 40 33 31 30 26 23 24 25 26 28 35 32 35 37 34 32 31 30 27 26 24 22 22 22 23 23 23 24 24 24 24 25 25 29 30 29 27 18 27
62 55 54 49 40 34 33 31 27 25 26 28 30 31 36 34 35 33 35 32 30 27 25 23 22 23 22 22 21 20 20 20 19 18 19 20 21 20 22 24 24 22 20
61 55 57 52 43 38 34 31 27 26 28 30 32 35 36 37 34 36 34 31 29 26 23 22 22 22 20 19 18 16 16 16 16 15 15 14 15 14 18 18 20 24 18
59 55 52 54 49 42 37 30 27 26 28 31 34 35 37 38 38 36 33 30 27 23 23 21 20 18 17 15 14 14 14 13 14 16 15 16 16 13 17 19 26 25 20
54 52 52 56 53 46 38 33 28 25 25 29 32 35 38 38 38 35 32 28 25 23 22 20 17 14 13 12 11 12 13 12 14 17 16 14 16 15 12 24 25 23 23
53 48 55 54 53 46 40 35 28 25 26 29 33 36 36 38 37 34 30 26 25 23 21 17 14 11 10 9 10 10 10 11 14 14 16 16 14 15 23 22 23 20 19
52 48 56 54 54 46 41 36 29 24 25 30 34 36 37 38 36 32 28 26 24 21 18 14 10 9 7 7 8 8 8 9 14 14 17 17 16 19 17 21 22 23 21
52 50 53 57 53 48 42 37 31 26 25 30 34 37 37 37 34 31 29 26 23 19 15 11 9 6 5 6 6 5 10 12 14 13 16 15 15 17 16 14 11 13 16
48 49 48 54 55 48 43 39 33 29 26 30 35 37 37 35 32 30 27 24 21 17 13 10 6 3 3 5 4 4 5 9 12 13 14 12 8 9 10 7 7 8 9
52 48 49 50 55 51 47 43 39 28 25 29 34 35 36 34 31 29 26 22 19 15 12 8 2 7 3 9 5 3 5 9 13 15 11 7 9 8 22 24 19 16 11
59 57 55 50 51 50 49 47 43 28 24 29 34 37 36 34 31 29 25 21 18 14 8 5 3 6 7 8 7 8 10 14 14 15 13 10 5 12 17 20 18 15 9
66 61 56 52 52 50 53 52 47 34 30 34 38 39 37 35 33 29 25 21 17 10 5 3 2 5 8 5 5 6 7 11 14 16 12 5 8 12 18 18 15 11 8
67 64 60 58 51 53 58 59 54 42 36 39 42 42 39 37 33 30 25 20 12 7 5 7 5 6 6 2 2 2 2 4 11 11 10 6 7 13 17 19 12 9 7
66 67 64 61 59 58 61 63 54 45 40 42 46 43 41 38 34 31 25 19 14 11 8 7 7 8 5 2 0 2 4 5 8 8 10 4 4 13 19 12 14 11 9
66 64 66 63 62 64 62 61 53 47 42 43 47 45 42 38 35 29 25 23 16 13 9 9 9 6 2 2 3 3 3 4 6 5 6 5 1 13 16 16 10 3 7
67 72 69 64 61 60 63 58 52 47 44 45 47 45 42 38 32 28 27 20 18 13 11 10 8 6 5 5 4 4 4 5 6 6 6 6 6 5 9 15 18 15 10
65 69 71 68 66 66 63 57 51 46 45 47 48 46 42 39 33 33 27 22 18 15 12 11 9 8 8 7 6 7 8 8 9 9 9 9 9 11 13 17 18 23 24
58 70 76 73 70 66 63 58 53 48 47 48 47 45 42 39 33 30 27 23 20 16 13 11 11 11 9 10 11 12 11 12 11 12 12 13 14 16 16 16 20 22 23
63 62 74 79 76 71 65 58 54 51 51 45 47 46 44 40 36 30 28 26 20 17 14 14 13 12 13 14 13 14 14 13 14 15 17 17 17 17 18 20 22 20 20
65 71 66 73 80 75 69 62 57 54 51 54 52 50 47 41 36 34 31 28 24 19 17 18 17 16 16 15 16 16 15 17 19 20 19 18 18 18 19 19 20 22 23
75 78 73 69 70 79 76 70 68 66 60 56 52 49 42 39 39 33 28 28 22 21 21 20 18 17 18 18 17 15 16 20 22 22 22 21 20 20 18 19 21 23 24
86 80 78 71 65 77 77 71 70 68 58 56 54 47 47 44 37 32 26 26 24 24 24 22 20 20 20 23 19 17 11 19 27 28 26 24 23 21 20 20 21 24 26
78 86 81 78 72 78 80 72 71 64 62 61 59 54 52 45 40 31 28 27 27 28 25 23 22 21 21 24 22 16 9 12 16 26 29 27 24 23 21 22 23 25 28
78 76 79 80 74 80 85 82 74 69 69 68 61 56 51 48 40 35 33 32 32 30 27 24 23 22 19 20 22 27 28 26 11 11 25 30 29 27 24 25 26 26 30
76 73 82 80 78 84 87 83 77 73 69 65 60 59 54 47 45 40 39 38 36 33 28 25 21 18 17 19 22 20 23 26 28 24 14 23 30 29 29 29 27 28 27
72 79 85 87 81 87 85 87 83 80 77 72 68 65 60 54 50 47 45 42 36 32 30 23 18 15 16 19 19 20 22 22 23 24 21 20 21 28 28 31 29 29 28
Wind_Direction_850mb
175 172 170 173 173 173 165 155 153 149 147 145 143 144 139 142 131 126 131 124 118 114 108 104 100 95 94 93 89 84 80 79 77 73 69 65 60 51 45 39 41 27 28
170 172 171 172 175 175 160 154 148 143 143 141 142 141 135 135 131 130 126 125 119 115 112 109 105 100 94 90 89 88 84 78 74 70 64 59 51 57 27 22 31 28 16
168 170 175 175 174 172 160 155 147 144 145 146 144 138 142 137 141 135 132 128 124 121 116 110 105 101 97 92 86 82 80 73 63 58 53 49 44 46 27 20 18 9 5
168 169 172 174 175 173 160 154 150 146 148 149 149 148 147 146 141 139 135 130 129 125 120 117 113 105 97 85 72 68 74 68 55 52 49 46 38 29 13 13 4 3 9
166 166 171 172 177 172 162 157 153 146 148 151 151 149 149 147 143 141 138 138 132 130 126 120 111 102 90 76 65 70 67 59 57 46 40 35 32 16 27 15 6 25 36
166 167 171 172 175 176 167 161 154 149 150 153 155 153 153 150 146 143 143 141 137 138 131 122 113 104 87 66 57 60 57 55 46 41 46 36 56 32 9 15 33 40 44
166 168 171 172 177 178 171 165 159 153 154 155 156 158 156 152 148 146 147 145 144 142 130 123 114 99 75 56 48 48 35 42 55 50 48 58 36 14 37 39 61 67 61
167 168 173 176 180 181 177 172 165 158 156 158 159 160 158 152 152 151 152 150 148 140 130 123 112 92 60 48 48 39 29 62 55 65 68 59 30 25 54 66 74 61 42
172 170 174 175 181 185 181 178 172 163 157 163 164 164 160 157 157 157 155 154 150 142 136 126 118 66 11 349 339 343 14 54 74 79 78 70 22 31 31 51 6 24 16
177 176 176 177 181 183 183 183 173 167 162 169 170 167 165 163 163 161 161 160 154 148 142 147 149 16 21 27 23 25 59 62 81 80 95 59 332 14 63 63 59 53 40
184 186 182 179 179 183 185 186 180 179 173 174 172 171 170 169 168 167 168 163 163 156 163 210 104 20 15 7 31 57 74 91 86 87 82 43 38 52 53 50 59 64 68
185 186 184 182 181 182 187 187 187 188 186 183 179 176 177 176 175 174 171 171 168 173 182 145 277 332 1 10 24 62 87 98 92 91 110 82 68 42 36 56 57 68 64
187 185 186 189 185 184 189 189 191 193 193 189 186 184 184 182 179 177 177 176 180 179 230 248 276 306 327 325 33 39 97 120 107 106 144 191 328 36 42 71 48 82 59
188 188 189 191 191 191 190 193 195 197 197 193 190 189 188 187 185 183 180 183 190 200 224 261 284 308 327 340 356 164 161 152 144 145 175 251 4 57 67 61 84 76 13
190 189 190 192 195 194 193 196 198 201 201 198 193 192 192 191 189 186 184 196 194 217 242 269 296 301 278 212 199 192 185 185 172 176 176 211 183 86 87 103 122 331 32
192 193 191 193 197 196 196 200 202 204 203 199 196 197 196 194 190 194 195 194 203 225 247 270 275 246 223 214 213 203 204 200 199 198 201 226 262 256 210 214 240 272 3
198 196 194 194 197 200 202 202 206 208 206 202 200 201 200 199 196 202 202 203 217 230 256 262 236 217 215 217 218 211 211 211 213 221 227 240 252 269 281 290 288 293 298
197 201 196 196 200 202 204 205 208 210 209 205 203 203 202 201 202 202 206 213 222 239 257 243 219 213 208 207 205 205 208 210 219 231 243 253 267 281 291 296 300 303 309
207 201 204 200 201 205 206 209 211 211 209 205 206 204 203 201 205 206 218 229 233 245 241 222 215 211 213 208 205 207 207 213 229 245 256 266 277 289 299 307 312 317 318
211 214 204 203 204 208 209 211 211 210 207 209 210 210 207 209 209 214 223 232 238 241 229 215 213 211 210 208 205 204 211 224 236 245 255 264 273 282 295 305 311 312 316
213 212 210 203 203 207 208 208 209 209 207 209 209 205 205 209 215 219 228 238 235 228 218 214 215 217 210 204 200 202 219 234 241 244 251 259 270 282 289 297 300 307 315
215 214 212 207 204 207 206 206 210 209 206 209 206 204 210 214 216 225 235 236 234 224 216 215 218 224 218 203 204 218 236 254 250 248 250 256 264 269 278 289 300 305 313
213 214 209 208 207 205 205 206 208 208 208 203 205 209 209 215 219 228 234 235 231 220 215 217 221 221 222 219 225 221 217 235 248 254 249 255 256 262 275 288 296 302 311
217 219 208 207 207 204 205 208 208 211 210 207 211 213 214 217 220 228 230 229 227 220 215 217 216 218 228 236 240 240 246 251 232 260 258 253 255 261 275 283 293 299 307
217 215 208 207 207 207 209 207 206 212 215 211 214 215 217 220 223 227 228 224 221 216 213 209 210 220 234 247 247 250 254 254 249 238 249 260 256 260 272 277 285 292 298
215 214 208 209 207 208 207 207 211 214 217 216 216 218 217 220 223 227 223 217 213 210 204 206 212 233 244 242 250 262 262 258 257 246 242 247 247 269 272 274 276 285 294